TimeCDT,TemperatureF,Dew PointF,Humidity,Sea Level PressureIn,VisibilityMPH,Wind Direction,Wind SpeedMPH,Gust SpeedMPH,PrecipitationIn,Events,Conditions,WindDirDegrees,DateUTC
12:56 AM,66.9,64.0,90,30.09,10.0,Calm,Calm,-,N/A,,Clear,0,2013-05-24 05:56:00
1:56 AM,66.9,64.0,90,30.09,10.0,NW,3.5,-,N/A,,Clear,310,2013-05-24 06:56:00
2:56 AM,66.0,62.1,87,30.10,10.0,Calm,Calm,-,N/A,,Clear,0,2013-05-24 07:56:00
3:56 AM,66.9,61.0,81,30.12,10.0,North,6.9,-,N/A,,Clear,360,2013-05-24 08:56:00
4:56 AM,66.0,60.1,81,30.13,10.0,North,6.9,-,N/A,,Clear,360,2013-05-24 09:56:00
5:56 AM,64.9,59.0,81,30.16,10.0,North,3.5,-,N/A,,Scattered Clouds,10,2013-05-24 10:56:00
6:56 AM,64.9,59.0,81,30.19,10.0,North,4.6,-,N/A,,Scattered Clouds,350,2013-05-24 11:56:00
7:56 AM,68.0,57.0,68,30.22,10.0,NE,6.9,-,N/A,,Partly Cloudy,40,2013-05-24 12:56:00
8:56 AM,70.0,55.9,61,30.23,10.0,NE,6.9,-,N/A,,Partly Cloudy,50,2013-05-24 13:56:00
9:56 AM,73.9,57.0,55,30.24,10.0,Variable,5.8,-,N/A,,Clear,0,2013-05-24 14:56:00
10:56 AM,75.0,57.0,53,30.24,10.0,NNE,9.2,-,N/A,,Scattered Clouds,30,2013-05-24 15:56:00
11:56 AM,77.0,57.0,50,30.24,10.0,NNE,9.2,-,N/A,,Scattered Clouds,20,2013-05-24 16:56:00
12:56 PM,80.1,57.0,45,30.24,10.0,North,11.5,-,N/A,,Scattered Clouds,10,2013-05-24 17:56:00
1:56 PM,81.0,55.9,42,30.23,10.0,North,9.2,-,N/A,,Scattered Clouds,10,2013-05-24 18:56:00
2:56 PM,82.0,55.0,39,30.22,10.0,NE,11.5,17.3,N/A,,Scattered Clouds,40,2013-05-24 19:56:00
3:56 PM,82.0,51.1,34,30.21,10.0,NNE,10.4,-,N/A,,Partly Cloudy,20,2013-05-24 20:56:00
4:56 PM,82.0,50.0,33,30.20,10.0,NE,10.4,-,N/A,,Clear,40,2013-05-24 21:56:00
5:56 PM,80.1,48.0,32,30.19,10.0,NE,8.1,-,N/A,,Clear,50,2013-05-24 22:56:00
6:56 PM,78.1,48.9,36,30.20,10.0,NNE,5.8,-,N/A,,Clear,30,2013-05-24 23:56:00
7:56 PM,72.0,48.9,44,30.21,10.0,NNE,4.6,-,N/A,,Clear,30,2013-05-25 00:56:00
8:56 PM,69.1,48.9,49,30.23,10.0,NNE,4.6,-,N/A,,Clear,30,2013-05-25 01:56:00
9:56 PM,66.0,48.9,54,30.25,10.0,NE,4.6,-,N/A,,Clear,40,2013-05-25 02:56:00
10:56 PM,61.0,50.0,67,30.26,10.0,Calm,Calm,-,N/A,,Clear,0,2013-05-25 03:56:00
11:56 PM,61.0,48.0,62,30.25,10.0,NE,4.6,-,N/A,,Clear,40,2013-05-25 04:56:00